QPF
0.00 0.00 0.00 0.00 0.01 0.01 0.02 0.01 0.00 0.00 0.01 0.01 0.01 0.02 0.02 0.01 0.00 0.00 0.01 0.01 0.01 0.02 0.02 0.02 0.02 0.01 0.02 0.02 0.02 0.02 0.02 0.02 0.02 0.02 0.03 0.04 0.03 0.03 0.02 0.02 0.02 0.01 0.01 0.01
0.00 0.01 0.01 0.01 0.01 0.01 0.01 0.01 0.00 0.01 0.01 0.01 0.01 0.02 0.01 0.00 0.00 0.00 0.00 0.01 0.01 0.01 0.01 0.02 0.02 0.01 0.02 0.02 0.02 0.02 0.02 0.01 0.01 0.02 0.03 0.04 0.03 0.03 0.03 0.03 0.02 0.02 0.01 0.01
0.00 0.00 0.00 0.01 0.01 0.01 0.01 0.01 0.01 0.01 0.01 0.01 0.01 0.01 0.01 0.01 0.01 0.00 0.00 0.01 0.02 0.01 0.01 0.01 0.02 0.01 0.02 0.04 0.05 0.04 0.04 0.03 0.02 0.03 0.03 0.03 0.02 0.02 0.02 0.03 0.03 0.03 0.03 0.03
0.00 0.00 0.00 0.00 0.00 0.00 0.01 0.01 0.01 0.01 0.01 0.01 0.01 0.01 0.01 0.01 0.01 0.01 0.00 0.00 0.02 0.02 0.02 0.03 0.02 0.01 0.02 0.07 0.11 0.05 0.03 0.03 0.03 0.03 0.02 0.02 0.03 0.02 0.02 0.02 0.03 0.03 0.03 0.03
0.01 0.00 0.00 0.00 0.00 0.00 0.00 0.00 0.01 0.01 0.01 0.01 0.00 0.00 0.00 0.01 0.01 0.01 0.01 0.01 0.01 0.02 0.03 0.04 0.02 0.01 0.02 0.04 0.09 0.06 0.04 0.04 0.04 0.04 0.03 0.03 0.03 0.01 0.01 0.02 0.02 0.02 0.02 0.03
0.00 0.00 0.00 0.00 0.00 0.00 0.00 0.00 0.01 0.01 0.01 0.02 0.00 0.00 0.00 0.00 0.01 0.01 0.01 0.01 0.01 0.03 0.05 0.04 0.02 0.01 0.02 0.03 0.04 0.04 0.05 0.05 0.05 0.05 0.05 0.04 0.02 0.01 0.01 0.02 0.02 0.03 0.02 0.03
0.01 0.01 0.01 0.00 0.00 0.01 0.01 0.01 0.01 0.01 0.01 0.02 0.01 0.00 0.00 0.01 0.01 0.01 0.01 0.01 0.04 0.05 0.05 0.03 0.02 0.01 0.01 0.02 0.04 0.06 0.07 0.07 0.06 0.07 0.06 0.05 0.03 0.01 0.01 0.01 0.02 0.03 0.03 0.02
0.00 0.01 0.00 0.00 0.01 0.01 0.01 0.01 0.01 0.01 0.01 0.01 0.01 0.01 0.01 0.01 0.01 0.01 0.01 0.02 0.07 0.08 0.07 0.05 0.03 0.02 0.02 0.03 0.06 0.08 0.09 0.09 0.10 0.09 0.07 0.07 0.06 0.03 0.02 0.02 0.02 0.02 0.02 0.02
0.00 0.01 0.01 0.01 0.01 0.01 0.01 0.01 0.00 0.01 0.01 0.01 0.01 0.01 0.01 0.01 0.01 0.01 0.01 0.02 0.05 0.07 0.07 0.06 0.03 0.03 0.03 0.06 0.07 0.10 0.13 0.13 0.11 0.09 0.07 0.09 0.07 0.04 0.02 0.01 0.02 0.02 0.02 0.02
0.00 0.00 0.01 0.01 0.01 0.01 0.01 0.01 0.01 0.01 0.01 0.01 0.01 0.01 0.01 0.01 0.01 0.01 0.01 0.02 0.04 0.06 0.06 0.06 0.05 0.05 0.07 0.08 0.11 0.17 0.14 0.09 0.08 0.07 0.06 0.05 0.04 0.02 0.02 0.02 0.02 0.02 0.01 0.02
0.00 0.00 0.00 0.01 0.01 0.01 0.01 0.01 0.00 0.00 0.00 0.01 0.01 0.00 0.01 0.00 0.01 0.01 0.02 0.01 0.02 0.04 0.04 0.05 0.06 0.07 0.08 0.08 0.09 0.11 0.10 0.10 0.08 0.06 0.05 0.03 0.02 0.02 0.01 0.02 0.02 0.01 0.01 0.02
0.00 0.00 0.00 0.00 0.00 0.01 0.00 0.01 0.01 0.00 0.00 0.00 0.00 0.00 0.00 0.01 0.01 0.01 0.01 0.01 0.01 0.03 0.05 0.04 0.05 0.05 0.05 0.05 0.06 0.07 0.07 0.07 0.06 0.04 0.03 0.02 0.01 0.01 0.02 0.01 0.01 0.02 0.02 0.02
0.01 0.00 0.00 0.00 0.00 0.00 0.00 0.00 0.01 0.01 0.00 0.00 0.00 0.00 0.01 0.01 0.01 0.00 0.00 0.00 0.01 0.02 0.05 0.04 0.03 0.02 0.02 0.03 0.05 0.06 0.04 0.03 0.04 0.04 0.04 0.04 0.02 0.02 0.03 0.03 0.03 0.03 0.02 0.02
0.00 0.00 0.00 0.00 0.00 0.00 0.00 0.00 0.00 0.01 0.01 0.00 0.00 0.00 0.00 0.00 0.00 0.00 0.01 0.01 0.01 0.01 0.03 0.06 0.04 0.02 0.02 0.03 0.04 0.04 0.04 0.03 0.03 0.04 0.11 0.12 0.05 0.03 0.03 0.03 0.03 0.03 0.03 0.02
0.00 0.00 0.00 0.00 0.00 0.00 0.00 0.00 0.00 0.00 0.00 0.00 0.01 0.01 0.01 0.01 0.01 0.01 0.01 0.01 0.02 0.02 0.02 0.03 0.04 0.04 0.02 0.03 0.03 0.04 0.03 0.02 0.02 0.02 0.04 0.05 0.04 0.04 0.03 0.03 0.03 0.03 0.02 0.02
0.00 0.00 0.00 0.00 0.00 0.00 0.00 0.00 0.00 0.00 0.00 0.00 0.01 0.00 0.00 0.01 0.01 0.01 0.02 0.02 0.02 0.02 0.01 0.01 0.02 0.03 0.04 0.04 0.03 0.04 0.04 0.03 0.04 0.05 0.06 0.06 0.07 0.07 0.05 0.05 0.05 0.04 0.03 0.02
0.01 0.01 0.01 0.00 0.00 0.00 0.00 0.00 0.00 0.00 0.00 0.00 0.01 0.00 0.00 0.00 0.01 0.01 0.01 0.01 0.01 0.01 0.01 0.01 0.01 0.03 0.05 0.05 0.05 0.05 0.05 0.06 0.08 0.11 0.12 0.12 0.12 0.08 0.06 0.06 0.06 0.05 0.04 0.04
0.01 0.01 0.01 0.00 0.00 0.01 0.01 0.01 0.01 0.01 0.00 0.01 0.01 0.01 0.01 0.01 0.01 0.02 0.02 0.01 0.01 0.01 0.02 0.02 0.01 0.02 0.06 0.08 0.09 0.11 0.10 0.09 0.09 0.11 0.16 0.15 0.10 0.07 0.06 0.06 0.07 0.08 0.08 0.05
0.01 0.01 0.00 0.00 0.00 0.00 0.01 0.01 0.01 0.02 0.02 0.02 0.02 0.02 0.01 0.01 0.02 0.02 0.02 0.02 0.01 0.01 0.01 0.01 0.01 0.01 0.06 0.10 0.09 0.10 0.13 0.12 0.10 0.10 0.11 0.12 0.09 0.07 0.06 0.06 0.07 0.08 0.08 0.08
0.00 0.00 0.00 0.00 0.00 0.00 0.01 0.01 0.01 0.02 0.03 0.04 0.03 0.03 0.02 0.02 0.02 0.02 0.02 0.02 0.01 0.01 0.01 0.01 0.01 0.01 0.03 0.09 0.10 0.08 0.09 0.11 0.10 0.08 0.07 0.06 0.06 0.06 0.06 0.07 0.07 0.08 0.09 0.09
0.00 0.00 0.00 0.00 0.00 0.01 0.01 0.01 0.02 0.02 0.03 0.04 0.03 0.03 0.03 0.03 0.02 0.02 0.02 0.02 0.02 0.01 0.02 0.01 0.01 0.01 0.01 0.03 0.05 0.05 0.07 0.08 0.07 0.06 0.05 0.06 0.07 0.08 0.09 0.09 0.08 0.07 0.07 0.06
0.00 0.00 0.00 0.00 0.00 0.01 0.01 0.01 0.02 0.02 0.03 0.03 0.02 0.03 0.03 0.03 0.02 0.02 0.03 0.03 0.03 0.02 0.02 0.02 0.01 0.01 0.01 0.01 0.01 0.01 0.02 0.03 0.04 0.04 0.04 0.05 0.06 0.09 0.10 0.06 0.04 0.03 0.03 0.03
0.01 0.00 0.00 0.00 0.00 0.00 0.01 0.01 0.02 0.03 0.03 0.03 0.03 0.03 0.03 0.03 0.03 0.03 0.03 0.03 0.02 0.02 0.03 0.02 0.01 0.01 0.01 0.01 0.01 0.01 0.01 0.02 0.03 0.03 0.03 0.03 0.04 0.05 0.05 0.04 0.03 0.02 0.02 0.02
0.01 0.00 0.01 0.00 0.00 0.00 0.01 0.01 0.02 0.03 0.03 0.03 0.03 0.03 0.03 0.04 0.04 0.04 0.04 0.04 0.04 0.05 0.06 0.06 0.04 0.02 0.02 0.02 0.02 0.02 0.02 0.02 0.03 0.03 0.03 0.03 0.04 0.05 0.05 0.03 0.03 0.03 0.02 0.02
0.01 0.01 0.01 0.01 0.01 0.01 0.01 0.01 0.02 0.03 0.03 0.03 0.02 0.02 0.04 0.05 0.05 0.05 0.07 0.07 0.08 0.09 0.09 0.09 0.08 0.05 0.05 0.04 0.03 0.03 0.03 0.03 0.03 0.03 0.04 0.04 0.04 0.04 0.04 0.03 0.03 0.03 0.02 0.02
0.01 0.01 0.01 0.01 0.01 0.01 0.01 0.01 0.02 0.02 0.03 0.03 0.03 0.03 0.04 0.04 0.04 0.05 0.06 0.06 0.07 0.09 0.11 0.10 0.08 0.06 0.04 0.03 0.03 0.04 0.05 0.05 0.05 0.04 0.04 0.04 0.03 0.03 0.04 0.03 0.03 0.03 0.03 0.02
MSLP
1009.04 1009.68 1010.14 1010.45 1010.64 1010.80 1011.00 1011.27 1011.64 1012.07 1012.51 1012.90 1013.18 1013.31 1013.28 1013.13 1012.92 1012.71 1012.57 1012.53 1012.61 1012.81 1013.07 1013.36 1013.64 1013.89 1014.09 1014.26 1014.45 1014.67 1014.95 1015.30 1015.69 1016.10 1016.45 1016.72 1016.86 1016.87 1016.76 1016.58 1016.38 1016.22 1016.16 1016.23
1009.20 1009.67 1009.96 1010.12 1010.22 1010.37 1010.62 1011.03 1011.56 1012.17 1012.77 1013.27 1013.59 1013.70 1013.60 1013.34 1012.99 1012.66 1012.41 1012.30 1012.35 1012.54 1012.81 1013.12 1013.41 1013.64 1013.81 1013.96 1014.10 1014.30 1014.58 1014.94 1015.38 1015.83 1016.25 1016.58 1016.76 1016.79 1016.68 1016.48 1016.24 1016.05 1015.96 1016.00
1009.22 1009.53 1009.66 1009.71 1009.76 1009.93 1010.28 1010.83 1011.54 1012.33 1013.08 1013.67 1014.02 1014.09 1013.89 1013.48 1012.98 1012.50 1012.14 1011.95 1011.95 1012.13 1012.42 1012.75 1013.06 1013.30 1013.47 1013.59 1013.71 1013.89 1014.15 1014.53 1014.99 1015.49 1015.96 1016.35 1016.58 1016.65 1016.56 1016.36 1016.12 1015.91 1015.79 1015.80
1009.12 1009.29 1009.32 1009.30 1009.35 1009.59 1010.06 1010.78 1011.67 1012.62 1013.49 1014.13 1014.47 1014.46 1014.12 1013.55 1012.86 1012.21 1011.71 1011.42 1011.38 1011.55 1011.86 1012.23 1012.57 1012.85 1013.03 1013.16 1013.27 1013.43 1013.68 1014.06 1014.53 1015.06 1015.57 1016.01 1016.31 1016.43 1016.39 1016.22 1015.99 1015.77 1015.63 1015.62
1008.94 1009.01 1008.97 1008.95 1009.06 1009.40 1010.03 1010.93 1011.99 1013.07 1014.01 1014.67 1014.94 1014.79 1014.28 1013.49 1012.61 1011.77 1011.11 1010.72 1010.63 1010.79 1011.13 1011.55 1011.96 1012.29 1012.51 1012.66 1012.78 1012.93 1013.17 1013.53 1014.00 1014.54 1015.09 1015.57 1015.92 1016.11 1016.13 1016.01 1015.81 1015.61 1015.47 1015.43
1008.71 1008.72 1008.67 1008.69 1008.90 1009.40 1010.20 1011.26 1012.47 1013.64 1014.60 1015.21 1015.36 1015.05 1014.32 1013.30 1012.19 1011.16 1010.35 1009.86 1009.72 1009.88 1010.26 1010.75 1011.23 1011.64 1011.92 1012.11 1012.25 1012.39 1012.62 1012.96 1013.41 1013.94 1014.50 1015.01 1015.42 1015.67 1015.75 1015.70 1015.56 1015.40 1015.26 1015.21
1008.43 1008.42 1008.40 1008.51 1008.87 1009.53 1010.51 1011.72 1013.02 1014.23 1015.17 1015.67 1015.67 1015.15 1014.19 1012.94 1011.62 1010.40 1009.46 1008.88 1008.70 1008.88 1009.31 1009.87 1010.44 1010.92 1011.28 1011.52 1011.68 1011.83 1012.04 1012.34 1012.76 1013.27 1013.83 1014.36 1014.80 1015.11 1015.26 1015.28 1015.21 1015.09 1014.98 1014.93
1008.10 1008.09 1008.14 1008.38 1008.89 1009.73 1010.85 1012.17 1013.53 1014.73 1015.58 1015.95 1015.76 1015.03 1013.86 1012.41 1010.90 1009.54 1008.49 1007.85 1007.66 1007.85 1008.33 1008.96 1009.61 1010.17 1010.60 1010.89 1011.08 1011.23 1011.42 1011.69 1012.07 1012.55 1013.08 1013.62 1014.08 1014.44 1014.66 1014.75 1014.74 1014.68 1014.60 1014.56
1007.69 1007.72 1007.87 1008.24 1008.91 1009.89 1011.13 1012.52 1013.87 1015.00 1015.73 1015.94 1015.57 1014.65 1013.30 1011.70 1010.07 1008.62 1007.52 1006.86 1006.66 1006.88 1007.40 1008.08 1008.79 1009.42 1009.90 1010.23 1010.45 1010.60 1010.77 1011.01 1011.36 1011.79 1012.30 1012.82 1013.30 1013.69 1013.96 1014.12 1014.17 1014.16 1014.12 1014.10
1007.21 1007.30 1007.57 1008.08 1008.88 1009.97 1011.27 1012.65 1013.94 1014.96 1015.54 1015.58 1015.04 1013.98 1012.52 1010.84 1009.17 1007.70 1006.60 1005.96 1005.78 1006.01 1006.56 1007.27 1008.00 1008.66 1009.18 1009.53 1009.76 1009.93 1010.09 1010.31 1010.62 1011.02 1011.50 1012.00 1012.48 1012.89 1013.20 1013.40 1013.51 1013.54 1013.54 1013.54
1006.69 1006.87 1007.25 1007.88 1008.78 1009.91 1011.21 1012.52 1013.69 1014.55 1014.96 1014.85 1014.19 1013.04 1011.55 1009.88 1008.26 1006.85 1005.81 1005.21 1005.06 1005.31 1005.84 1006.54 1007.26 1007.91 1008.42 1008.78 1009.03 1009.20 1009.36 1009.57 1009.86 1010.24 1010.69 1011.18 1011.65 1012.07 1012.40 1012.63 1012.77 1012.85 1012.88 1012.90
1006.20 1006.48 1006.96 1007.67 1008.62 1009.75 1010.96 1012.14 1013.13 1013.81 1014.04 1013.79 1013.05 1011.89 1010.44 1008.87 1007.37 1006.09 1005.15 1004.62 1004.51 1004.75 1005.25 1005.89 1006.55 1007.15 1007.63 1007.98 1008.22 1008.41 1008.58 1008.81 1009.10 1009.48 1009.92 1010.38 1010.84 1011.25 1011.59 1011.84 1012.01 1012.11 1012.17 1012.21
1005.79 1006.17 1006.75 1007.51 1008.45 1009.50 1010.57 1011.56 1012.33 1012.79 1012.85 1012.48 1011.70 1010.59 1009.26 1007.86 1006.53 1005.43 1004.64 1004.20 1004.11 1004.32 1004.75 1005.30 1005.87 1006.38 1006.80 1007.12 1007.37 1007.57 1007.78 1008.03 1008.35 1008.74 1009.18 1009.64 1010.08 1010.48 1010.81 1011.06 1011.24 1011.35 1011.43 1011.49
1005.53 1006.02 1006.66 1007.43 1008.31 1009.22 1010.09 1010.84 1011.36 1011.58 1011.47 1011.01 1010.24 1009.22 1008.05 1006.86 1005.77 1004.87 1004.24 1003.89 1003.83 1003.99 1004.33 1004.76 1005.20 1005.61 1005.96 1006.25 1006.49 1006.73 1006.98 1007.29 1007.64 1008.06 1008.50 1008.96 1009.39 1009.77 1010.08 1010.33 1010.51 1010.63 1010.73 1010.80
1005.46 1006.03 1006.70 1007.44 1008.20 1008.93 1009.56 1010.02 1010.27 1010.27 1010.00 1009.47 1008.72 1007.83 1006.87 1005.92 1005.07 1004.40 1003.92 1003.67 1003.62 1003.73 1003.96 1004.25 1004.56 1004.86 1005.14 1005.39 1005.65 1005.92 1006.24 1006.60 1007.01 1007.46 1007.92 1008.38 1008.79 1009.15 1009.45 1009.68 1009.85 1009.99 1010.09 1010.19
1005.55 1006.17 1006.83 1007.49 1008.10 1008.60 1008.97 1009.15 1009.13 1008.91 1008.49 1007.92 1007.23 1006.48 1005.73 1005.03 1004.44 1003.97 1003.66 1003.49 1003.44 1003.50 1003.62 1003.79 1003.98 1004.18 1004.39 1004.63 1004.91 1005.23 1005.61 1006.04 1006.51 1006.99 1007.47 1007.92 1008.32 1008.66 1008.94 1009.15 1009.32 1009.46 1009.58 1009.70
1005.74 1006.37 1006.98 1007.52 1007.94 1008.21 1008.30 1008.21 1007.95 1007.54 1007.01 1006.42 1005.80 1005.21 1004.67 1004.21 1003.85 1003.59 1003.42 1003.33 1003.29 1003.30 1003.34 1003.41 1003.50 1003.62 1003.80 1004.04 1004.34 1004.72 1005.16 1005.66 1006.18 1006.70 1007.18 1007.63 1008.01 1008.33 1008.58 1008.78 1008.95 1009.10 1009.23 1009.36
1005.94 1006.52 1007.03 1007.42 1007.64 1007.68 1007.53 1007.20 1006.73 1006.17 1005.58 1005.00 1004.48 1004.04 1003.70 1003.47 1003.32 1003.24 1003.20 1003.19 1003.18 1003.16 1003.15 1003.14 1003.17 1003.26 1003.42 1003.67 1004.02 1004.45 1004.96 1005.50 1006.06 1006.60 1007.09 1007.52 1007.88 1008.17 1008.40 1008.59 1008.76 1008.92 1009.07 1009.21
1006.04 1006.51 1006.89 1007.11 1007.13 1006.96 1006.60 1006.09 1005.48 1004.84 1004.23 1003.70 1003.28 1003.00 1002.86 1002.82 1002.87 1002.95 1003.03 1003.09 1003.12 1003.10 1003.07 1003.04 1003.05 1003.13 1003.31 1003.59 1003.98 1004.46 1005.01 1005.59 1006.17 1006.71 1007.19 1007.59 1007.92 1008.19 1008.40 1008.58 1008.75 1008.91 1009.07 1009.22
1005.97 1006.29 1006.50 1006.54 1006.38 1006.04 1005.53 1004.90 1004.22 1003.56 1002.99 1002.54 1002.26 1002.14 1002.17 1002.31 1002.52 1002.74 1002.94 1003.08 1003.15 1003.17 1003.15 1003.13 1003.16 1003.26 1003.46 1003.78 1004.21 1004.73 1005.31 1005.90 1006.48 1007.00 1007.46 1007.83 1008.13 1008.36 1008.55 1008.72 1008.88 1009.05 1009.21 1009.36
1005.69 1005.84 1005.86 1005.73 1005.42 1004.96 1004.36 1003.69 1003.01 1002.40 1001.91 1001.59 1001.45 1001.49 1001.68 1001.98 1002.33 1002.67 1002.97 1003.18 1003.32 1003.38 1003.40 1003.43 1003.49 1003.63 1003.88 1004.23 1004.69 1005.23 1005.81 1006.40 1006.95 1007.44 1007.86 1008.19 1008.45 1008.65 1008.82 1008.97 1009.12 1009.26 1009.41 1009.54
1005.24 1005.19 1005.04 1004.76 1004.34 1003.80 1003.19 1002.54 1001.93 1001.42 1001.06 1000.88 1000.90 1001.10 1001.43 1001.86 1002.32 1002.77 1003.14 1003.43 1003.63 1003.75 1003.83 1003.91 1004.03 1004.22 1004.50 1004.88 1005.36 1005.89 1006.46 1007.01 1007.52 1007.97 1008.34 1008.62 1008.84 1009.00 1009.14 1009.26 1009.39 1009.51 1009.62 1009.71
1004.69 1004.45 1004.14 1003.75 1003.26 1002.71 1002.13 1001.56 1001.07 1000.71 1000.50 1000.49 1000.66 1000.99 1001.45 1001.98 1002.53 1003.05 1003.49 1003.84 1004.10 1004.28 1004.42 1004.55 1004.72 1004.95 1005.26 1005.66 1006.12 1006.64 1007.16 1007.67 1008.13 1008.52 1008.84 1009.07 1009.24 1009.37 1009.47 1009.55 1009.63 1009.71 1009.77 1009.81
1004.14 1003.74 1003.31 1002.84 1002.34 1001.81 1001.31 1000.87 1000.53 1000.33 1000.29 1000.44 1000.74 1001.20 1001.75 1002.35 1002.96 1003.52 1004.01 1004.40 1004.71 1004.94 1005.13 1005.31 1005.51 1005.77 1006.09 1006.48 1006.92 1007.39 1007.87 1008.32 1008.72 1009.05 1009.31 1009.49 1009.62 1009.70 1009.75 1009.79 1009.82 1009.83 1009.83 1009.79
1003.67 1003.17 1002.66 1002.16 1001.68 1001.23 1000.84 1000.54 1000.37 1000.33 1000.46 1000.74 1001.16 1001.70 1002.31 1002.96 1003.59 1004.17 1004.68 1005.09 1005.43 1005.69 1005.91 1006.12 1006.35 1006.61 1006.92 1007.28 1007.68 1008.10 1008.52 1008.90 1009.24 1009.51 1009.72 1009.86 1009.94 1009.98 1009.98 1009.96 1009.92 1009.85 1009.76 1009.64
1003.36 1002.80 1002.27 1001.79 1001.37 1001.02 1000.77 1000.62 1000.60 1000.72 1000.98 1001.37 1001.87 1002.46 1003.10 1003.75 1004.38 1004.95 1005.45 1005.87 1006.21 1006.49 1006.72 1006.94 1007.17 1007.42 1007.70 1008.02 1008.37 1008.72 1009.07 1009.39 1009.67 1009.89 1010.05 1010.15 1010.19 1010.18 1010.13 1010.04 1009.92 1009.78 1009.59 1009.38
Thickness
5807 5793 5785 5792 5797 5798 5794 5788 5784 5794 5809 5802 5796 5797 5805 5810 5810 5807 5805 5805 5806 5807 5810 5810 5809 5807 5804 5801 5798 5795 5792 5790 5786 5782 5779 5776 5774 5774 5774 5774 5774 5773 5772 5771
5789 5785 5801 5806 5803 5800 5794 5785 5784 5794 5807 5802 5794 5795 5806 5810 5810 5810 5809 5808 5808 5807 5807 5807 5807 5806 5803 5800 5798 5796 5793 5790 5787 5784 5781 5778 5776 5774 5774 5774 5773 5772 5771 5770
5786 5796 5810 5805 5798 5792 5789 5785 5786 5787 5797 5800 5793 5788 5797 5807 5811 5811 5812 5812 5811 5809 5806 5806 5805 5804 5803 5800 5798 5796 5793 5791 5788 5785 5781 5778 5774 5772 5771 5770 5770 5771 5770 5768
5789 5803 5805 5800 5796 5794 5782 5799 5798 5792 5779 5769 5781 5761 5787 5797 5801 5806 5809 5809 5810 5811 5810 5808 5806 5804 5803 5801 5799 5796 5793 5789 5787 5785 5780 5776 5771 5768 5768 5768 5768 5768 5768 5767
5788 5800 5799 5795 5800 5801 5794 5803 5796 5789 5776 5766 5770 5761 5775 5791 5792 5802 5808 5810 5812 5812 5812 5809 5808 5806 5804 5802 5799 5796 5792 5788 5786 5783 5779 5775 5773 5770 5769 5768 5767 5766 5766 5765
5794 5807 5807 5805 5810 5809 5804 5793 5783 5771 5762 5749 5762 5757 5765 5782 5795 5804 5810 5812 5813 5813 5812 5810 5809 5806 5803 5801 5798 5794 5790 5787 5784 5780 5777 5774 5771 5769 5767 5765 5764 5763 5762 5762
5782 5795 5807 5811 5799 5800 5794 5769 5747 5744 5736 5741 5762 5759 5768 5799 5808 5811 5811 5813 5815 5814 5811 5808 5805 5802 5799 5797 5795 5792 5788 5783 5781 5779 5776 5773 5770 5768 5767 5765 5762 5760 5759 5759
5762 5766 5795 5804 5798 5788 5783 5772 5745 5734 5731 5740 5756 5754 5781 5808 5814 5817 5817 5816 5815 5813 5811 5808 5806 5803 5800 5797 5795 5790 5786 5782 5780 5777 5775 5773 5770 5768 5766 5765 5762 5760 5758 5758
5758 5765 5797 5806 5808 5798 5779 5769 5770 5747 5742 5736 5745 5763 5787 5806 5809 5812 5812 5811 5810 5811 5810 5807 5806 5803 5800 5797 5795 5791 5786 5782 5780 5777 5774 5771 5769 5766 5765 5763 5761 5759 5758 5757
5774 5765 5785 5798 5801 5797 5790 5774 5753 5741 5728 5726 5742 5753 5767 5790 5796 5803 5805 5805 5807 5808 5808 5806 5804 5802 5799 5797 5793 5790 5786 5783 5780 5777 5774 5772 5768 5766 5764 5762 5759 5757 5756 5755
5778 5764 5772 5782 5780 5777 5775 5767 5753 5738 5738 5726 5726 5750 5791 5793 5798 5799 5803 5805 5805 5806 5806 5805 5804 5801 5798 5795 5792 5789 5785 5781 5778 5775 5772 5769 5767 5765 5763 5760 5757 5755 5754 5752
5772 5757 5750 5767 5785 5791 5784 5772 5756 5744 5736 5730 5729 5752 5801 5800 5801 5801 5801 5804 5806 5805 5806 5805 5802 5799 5795 5792 5790 5787 5784 5780 5777 5774 5770 5767 5765 5762 5760 5757 5756 5754 5751 5749
5770 5752 5737 5745 5759 5774 5773 5770 5762 5750 5735 5724 5727 5754 5795 5796 5796 5798 5799 5800 5802 5803 5801 5800 5798 5796 5793 5790 5787 5785 5782 5779 5775 5771 5768 5765 5762 5759 5757 5755 5753 5751 5749 5746
5777 5750 5743 5738 5748 5762 5764 5765 5760 5751 5734 5729 5738 5758 5780 5785 5787 5791 5794 5796 5797 5797 5796 5794 5793 5792 5790 5788 5786 5783 5780 5777 5773 5769 5766 5762 5759 5757 5755 5753 5750 5748 5745 5742
5770 5750 5753 5757 5765 5766 5765 5763 5760 5756 5751 5745 5754 5758 5775 5782 5785 5787 5790 5792 5792 5792 5791 5791 5789 5786 5785 5783 5781 5779 5776 5774 5770 5766 5762 5759 5756 5754 5751 5749 5747 5744 5741 5739
5755 5749 5749 5751 5759 5760 5757 5760 5759 5758 5757 5755 5759 5763 5779 5783 5784 5784 5786 5787 5787 5788 5788 5788 5786 5783 5781 5779 5777 5775 5773 5769 5766 5762 5758 5755 5752 5749 5746 5744 5741 5739 5736 5733
5740 5739 5733 5731 5745 5748 5738 5751 5752 5754 5758 5757 5754 5765 5774 5775 5777 5779 5781 5782 5783 5785 5786 5785 5783 5781 5778 5776 5774 5771 5769 5766 5762 5758 5754 5750 5746 5743 5741 5739 5736 5733 5730 5728
5734 5728 5720 5719 5730 5719 5741 5759 5759 5755 5757 5761 5763 5767 5771 5774 5776 5778 5779 5779 5779 5780 5780 5780 5779 5777 5775 5773 5770 5768 5764 5760 5756 5753 5749 5746 5742 5739 5736 5733 5730 5727 5725 5722
5733 5725 5712 5707 5710 5719 5739 5751 5751 5746 5747 5758 5758 5762 5765 5768 5768 5769 5775 5776 5776 5777 5777 5776 5775 5772 5769 5766 5764 5760 5756 5753 5750 5746 5743 5741 5737 5734 5730 5726 5724 5722 5719 5716
5721 5720 5710 5703 5706 5705 5730 5749 5755 5747 5736 5754 5754 5754 5756 5758 5748 5758 5771 5771 5771 5772 5771 5770 5768 5765 5762 5759 5756 5752 5749 5746 5744 5741 5739 5735 5732 5729 5724 5721 5718 5715 5713 5710
5707 5703 5700 5698 5700 5710 5733 5744 5747 5725 5730 5749 5751 5751 5751 5750 5753 5760 5764 5764 5764 5764 5764 5763 5760 5757 5755 5753 5749 5745 5743 5740 5739 5737 5733 5729 5725 5722 5719 5715 5712 5709 5706 5703
5698 5694 5691 5689 5692 5703 5733 5733 5729 5730 5741 5744 5745 5748 5747 5748 5751 5753 5754 5753 5754 5754 5753 5752 5750 5748 5748 5746 5743 5739 5736 5736 5733 5730 5727 5722 5718 5716 5713 5709 5706 5703 5699 5695
5692 5697 5695 5697 5702 5718 5726 5729 5733 5734 5734 5738 5740 5742 5742 5740 5741 5742 5742 5742 5743 5744 5744 5742 5740 5739 5738 5738 5736 5732 5731 5729 5725 5722 5719 5716 5713 5709 5706 5702 5699 5695 5692 5688
5691 5694 5692 5694 5705 5715 5720 5724 5728 5730 5731 5734 5736 5737 5737 5734 5733 5732 5732 5732 5732 5733 5733 5733 5732 5731 5729 5729 5728 5726 5724 5722 5718 5714 5711 5708 5705 5701 5698 5695 5692 5688 5685 5681
5684 5686 5685 5688 5700 5707 5715 5719 5722 5724 5726 5728 5730 5731 5730 5729 5727 5725 5723 5723 5723 5723 5723 5724 5722 5721 5720 5719 5717 5716 5715 5714 5710 5706 5702 5699 5696 5693 5690 5686 5684 5682 5679 5676
5677 5680 5680 5684 5696 5697 5703 5712 5715 5715 5716 5719 5720 5720 5721 5721 5719 5718 5716 5716 5715 5714 5713 5713 5712 5711 5710 5709 5707 5706 5705 5704 5701 5696 5693 5690 5687 5684 5681 5677 5674 5672 5671 5668